Stations météo

Publicité
Rodez, France (7552): Température de l'air & dewpoint: 17.01.2017 01:00:00 - 23.01.2017 01:00:00 (CET)Rodez, France (7552): Température de l'air 5cm: 17.01.2017 01:00:00 - 23.01.2017 01:00:00 (CET)Rodez, France (7552): Vitesse du vent & gusts: 17.01.2017 01:00:00 - 23.01.2017 01:00:00 (CET)Rodez, France (7552): Direction du vent: 17.01.2017 01:00:00 - 23.01.2017 01:00:00 (CET)Rodez, France (7552): reduced air pressure: 17.01.2017 01:00:00 - 23.01.2017 01:00:00 (CET)Rodez, France (7552): visibility: 17.01.2017 01:00:00 - 23.01.2017 01:00:00 (CET)Rodez, France (7552): Ensoleillement: 17.01.2017 01:00:00 - 23.01.2017 01:00:00 (CET)Rodez, France (7552): Quantités de précipitations: 17.01.2017 01:00:00 - 23.01.2017 01:00:00 (CET)
Date & Time tt [°C] td [°C] tt 5cm [°C] ff [km/h] ff [knt] fx [km/h] fx [knt] dd ppp [hPa] vv [km] sd [min] rr [mm]
23.01.2017 01:00:00 1,7 0,2 1,0 5 3 17 9 ENE 1023,3 11 0 0,0
23.01.2017 00:00:00 1,6 0,7 1,1 0 0 2 1 N 1023,5 10 0 0,0
22.01.2017 23:00:00 1,8 0,3 1,0 3 1 5 3 SSE 1023,4 16 0 0,0
22.01.2017 22:00:00 1,6 0,3 0,8 4 2 6 3 SE 1023,3 14 0 0,0
22.01.2017 21:00:00 1,5 0,3 0,5 0 0 10 5 N 1023,3 16 0 0,0
22.01.2017 20:00:00 1,8 0,2 0,9 2 1 9 5 NW 1023,4 32 0 0,2
22.01.2017 19:00:00 1,6 0,1 0,9 0 0 4 2 N 1023,3 33 0 0,0
22.01.2017 18:00:00 2,5 0,4 1,3 4 2 9 5 E 1022,7 36 0 0,0
22.01.2017 17:00:00 3,1 0,7 2,3 0 0 6 4 N 1022,2 23 0 0,0
22.01.2017 16:00:00 3,7 1,7 3,2 4 2 6 3 WSW 1021,9 19 0 0,2
22.01.2017 15:00:00 4,0 1,5 3,3 5 3 10 5 NW 1021,7 59 0 0,2
22.01.2017 14:00:00 3,7 0,2 3,6 6 4 13 7 NW 1022,3 20 0 0,0
22.01.2017 13:00:00 4,5 -1,9 4,3 9 5 23 12 SSW 1022,7 44 0 0,0
22.01.2017 12:00:00 2,9 -4,3 3,0 8 4 16 9 SE 1023,4 39 0 0,0
22.01.2017 11:00:00 1,5 -3,8 - 8 4 11 6 E 1023,3 35 - 0,0
22.01.2017 10:00:00 -1,5 -4,2 -3,6 6 3 11 6 SSW 1023,6 20 0 0,0
22.01.2017 09:00:00 -2,6 -5,9 -5,5 7 4 13 7 SE 1023,2 20 0 0,0
22.01.2017 08:00:00 -4,3 -6,3 -7,6 4 2 8 4 SSW 1023,4 16 0 0,0
22.01.2017 07:00:00 -4,7 -5,9 -10,3 4 2 6 3 SE 1022,9 16 0 0,0
22.01.2017 06:00:00 -5,3 -8,2 -9,8 4 2 7 4 SE 1023,1 22 0 0,0
22.01.2017 05:00:00 -5,3 -8,2 -10,1 7 4 8 5 SE 1023,8 20 0 0,0
22.01.2017 04:00:00 -5,0 -7,1 -8,9 0 0 6 3 N 1023,7 40 0 0,0
22.01.2017 03:00:00 -3,9 -7,2 -8,5 3 2 5 3 E 1023,7 45 0 0,0
22.01.2017 02:00:00 -3,6 -6,4 -7,9 2 1 4 2 E 1024,1 49 0 0,0
22.01.2017 01:00:00 -4,1 -7,2 -7,6 2 1 4 2 SSE 1024,6 49 0 0,0
22.01.2017 00:00:00 -3,7 -6,5 -7,8 0 0 4 2 N 1024,9 51 0 0,0
21.01.2017 23:00:00 -1,4 -6,5 -7,7 0 0 4 2 N 1024,5 60 0 0,0
21.01.2017 22:00:00 -0,3 -7,6 -8,0 3 1 6 3 N 1024,0 60 0 0,0
21.01.2017 21:00:00 -1,0 -6,4 -6,8 0 0 10 5 N 1024,4 60 0 0,0
21.01.2017 20:00:00 -0,2 -6,0 -6,5 5 3 10 6 NNE 1024,2 60 0 0,0
21.01.2017 19:00:00 4,8 -5,6 -0,1 9 5 13 7 N 1022,6 60 0 0,0
21.01.2017 18:00:00 6,4 -5,6 2,2 7 4 14 7 NNW 1022,2 60 0 0,0
21.01.2017 17:00:00 7,3 -5,8 3,0 6 4 11 6 N 1021,9 60 15 0,0
21.01.2017 16:00:00 9,6 -5,5 13,0 6 3 17 9 ENE 1021,3 60 60 0,0
21.01.2017 15:00:00 9,9 -4,9 14,8 12 6 24 13 ENE 1021,3 60 60 0,0
21.01.2017 14:00:00 8,7 -3,2 13,2 13 7 22 12 NNE 1022,1 60 53 0,0
21.01.2017 13:00:00 9,1 -4,5 13,4 10 5 21 11 ESE 1022,8 60 60 0,0
21.01.2017 12:00:00 7,1 -2,9 10,1 6 3 11 6 E 1024,1 55 57 0,0
21.01.2017 11:00:00 5,7 -2,2 7,4 6 4 10 5 E 1024,6 48 58 0,0
21.01.2017 10:00:00 2,4 -3,3 0,4 3 2 8 5 E 1025,4 42 44 0,0
21.01.2017 09:00:00 0,3 -4,3 -2,3 8 4 13 7 E 1025,6 57 0 0,0
21.01.2017 08:00:00 0,4 -4,3 -3,1 8 4 13 7 ENE 1025,4 58 0 0,0
21.01.2017 07:00:00 0,3 -4,0 -1,7 10 5 13 7 ENE 1025,3 55 0 0,0
21.01.2017 06:00:00 0,3 -4,2 -3,8 9 5 11 6 ENE 1025,3 47 0 0,0
21.01.2017 05:00:00 -0,5 -4,0 -9,0 7 4 11 6 ENE 1025,7 48 0 0,0
21.01.2017 04:00:00 -2,9 -5,1 -8,7 3 2 7 4 ESE 1026,9 32 0 0,0
21.01.2017 03:00:00 -1,5 -5,4 -9,3 8 4 10 6 ESE 1026,9 38 0 0,0
21.01.2017 02:00:00 -2,4 -5,7 -8,0 5 3 11 6 SE 1027,1 28 0 0,0
21.01.2017 01:00:00 -1,2 -5,2 -6,2 5 3 8 4 E 1027,0 30 0 0,0
21.01.2017 00:00:00 -0,5 -5,1 -4,5 8 4 14 7 E 1027,4 28 0 0,0
20.01.2017 23:00:00 -0,6 -5,4 -4,4 3 2 13 7 E 1027,5 20 0 0,0
20.01.2017 22:00:00 -0,1 -4,9 -6,7 5 3 15 8 ENE 1027,7 33 0 0,0
20.01.2017 21:00:00 -0,1 -4,7 -7,4 13 7 15 8 ESE 1027,5 31 0 0,0
20.01.2017 20:00:00 1,7 -4,8 -5,4 10 5 14 7 ESE 1026,9 36 0 0,0
20.01.2017 19:00:00 3,4 -5,0 -2,5 11 6 16 8 SE 1026,0 60 0 0,0
20.01.2017 18:00:00 4,6 -5,2 2,1 11 6 19 10 SE 1025,7 60 4 0,0
20.01.2017 17:00:00 6,3 -5,4 6,0 14 8 31 17 SE 1025,1 48 60 0,0
20.01.2017 16:00:00 7,6 -4,8 9,9 20 11 34 18 ESE 1024,8 27 60 0,0
20.01.2017 15:00:00 7,8 -4,0 10,9 23 12 37 20 ESE 1025,1 26 60 0,0
20.01.2017 14:00:00 7,6 -3,9 10,6 23 12 37 20 SE 1025,4 27 60 0,0
20.01.2017 13:00:00 7,1 -3,8 10,1 21 11 31 17 ESE 1026,1 29 60 0,0
20.01.2017 12:00:00 5,9 -3,2 10,1 18 10 26 14 ESE 1027,1 31 60 0,0
20.01.2017 11:00:00 3,3 -3,5 3,2 8 4 14 8 E 1027,9 37 60 0,0
20.01.2017 10:00:00 0,1 -4,9 -4,8 9 5 16 9 E 1028,4 55 43 0,0
20.01.2017 09:00:00 -4,9 -7,2 -11,4 7 4 14 8 E 1029,7 17 0 0,0
20.01.2017 08:00:00 -7,6 -9,5 -12,0 5 3 8 5 ENE 1030,2 17 0 0,0
20.01.2017 07:00:00 -7,4 -9,3 -11,4 2 1 4 2 ESE 1029,9 16 0 0,0
20.01.2017 06:00:00 -5,2 -7,3 -11,7 3 2 7 4 SE 1029,3 16 0 0,0
20.01.2017 05:00:00 -6,4 -7,8 -11,2 6 3 9 5 SE 1029,5 14 0 0,0
20.01.2017 04:00:00 -7,1 -8,2 -12,7 8 5 10 5 SE 1029,9 9 0 0,0
20.01.2017 03:00:00 -7,0 -8,1 -12,3 0 0 6 3 N 1030,0 7 0 0,0
20.01.2017 02:00:00 -7,0 -7,8 -12,3 6 3 9 5 SE 1029,9 7 0 0,0
20.01.2017 01:00:00 -7,6 -10,1 -11,7 5 3 8 4 SE 1030,3 7 0 0,0
20.01.2017 00:00:00 -6,4 -8,2 -11,5 3 1 4 2 SE 1030,3 9 0 0,0
19.01.2017 23:00:00 -6,4 -7,8 -11,9 0 0 5 3 N 1030,3 11 0 0,0
19.01.2017 22:00:00 -5,8 -7,8 -11,3 0 0 3 2 N 1030,1 11 0 0,0
19.01.2017 21:00:00 -4,1 -6,4 -10,5 0 0 13 7 N 1029,3 13 0 0,0
19.01.2017 20:00:00 -3,5 -6,1 -10,1 3 2 7 4 NNW 1028,8 14 0 0,0
19.01.2017 19:00:00 -3,1 -6,4 -9,0 0 0 4 2 N 1028,8 17 0 0,0
19.01.2017 18:00:00 0,3 -6,4 -5,7 4 2 9 5 N 1027,5 17 3 0,0
19.01.2017 17:00:00 2,4 -5,7 2,8 4 2 12 6 WNW 1026,8 20 60 0,0
19.01.2017 16:00:00 4,4 -5,9 9,9 5 3 11 6 N 1026,1 20 60 0,0
19.01.2017 15:00:00 3,1 -6,6 9,1 6 3 12 7 NE 1026,5 27 60 0,0
19.01.2017 14:00:00 1,7 -6,6 6,7 4 2 11 6 ENE 1027,1 19 60 0,0
19.01.2017 13:00:00 -0,5 -7,1 5,3 5 3 12 6 NE 1028,2 19 60 0,0
19.01.2017 12:00:00 -2,7 -7,2 2,3 5 3 11 6 NE 1028,9 17 60 0,0
19.01.2017 11:00:00 -4,2 -8,0 -3,9 6 3 8 5 ENE 1029,6 14 60 0,0
19.01.2017 10:00:00 -6,9 -9,1 -9,8 5 3 7 4 ESE 1030,0 11 45 0,0
19.01.2017 09:00:00 -9,7 -10,9 -15,3 5 3 6 4 E 1030,2 8 0 0,0
19.01.2017 08:00:00 -10,8 -12,4 -15,3 4 2 6 3 ESE 1030,0 9 0 0,0
19.01.2017 07:00:00 -9,6 -11,2 -15,0 4 2 6 3 E 1029,2 10 0 0,0
19.01.2017 06:00:00 -10,4 -11,7 -16,2 4 2 8 4 SE 1029,4 10 0 0,0
19.01.2017 05:00:00 -10,6 -12,2 -15,9 4 2 6 3 SSE 1029,5 8 0 0,0
19.01.2017 04:00:00 -10,1 -11,3 -15,9 4 2 6 4 ESE 1029,3 8 0 0,0
19.01.2017 03:00:00 -10,3 -11,5 -15,6 3 2 5 3 ESE 1029,3 9 0 0,0
19.01.2017 02:00:00 -10,8 -12,3 -15,4 4 2 5 3 S 1029,2 12 0 0,0
19.01.2017 01:00:00 -10,5 -12,0 -15,2 3 2 7 4 SSW 1028,9 12 0 0,0
19.01.2017 00:00:00 -10,0 -11,6 -14,5 5 3 6 3 S 1029,1 13 0 0,0
18.01.2017 23:00:00 -8,7 -10,6 -13,4 3 1 10 5 SSW 1028,6 14 0 0,0
18.01.2017 22:00:00 -8,4 -11,2 -12,1 8 4 12 7 W 1028,2 19 0 0,0
18.01.2017 21:00:00 -7,5 -10,2 -10,9 9 5 12 7 WNW 1028,1 19 0 0,0
18.01.2017 20:00:00 -8,3 -10,8 -11,0 10 5 11 6 WNW 1028,5 19 0 0,0
18.01.2017 19:00:00 -6,1 -10,3 -9,4 6 3 16 9 NW 1027,6 24 0 0,0
18.01.2017 18:00:00 -4,4 -8,3 -7,1 12 7 16 9 NW 1026,9 29 1 0,0
18.01.2017 17:00:00 -1,5 -8,5 -1,3 10 5 18 10 NW 1025,8 35 60 0,0
18.01.2017 16:00:00 -0,6 -8,8 2,7 6 4 14 8 N 1025,4 23 60 0,0
18.01.2017 15:00:00 -0,8 -9,2 3,4 6 4 16 9 NW 1025,3 33 60 0,0
18.01.2017 14:00:00 -1,7 -9,6 3,9 8 4 14 8 W 1025,2 37 60 0,0
18.01.2017 13:00:00 -2,3 -9,9 3,7 4 2 11 6 WSW 1026,1 36 60 0,0
18.01.2017 12:00:00 -3,4 -9,4 1,1 6 3 13 7 N 1026,1 41 60 0,0
18.01.2017 11:00:00 -4,7 -10,1 -0,8 7 4 14 8 N 1026,8 20 60 0,0
18.01.2017 10:00:00 -5,6 -10,2 -7,6 6 4 12 6 NNW 1026,6 20 42 0,0
18.01.2017 09:00:00 -8,1 -10,2 -12,4 6 4 9 5 NW 1027,0 28 0 0,0
18.01.2017 08:00:00 -7,6 -11,1 -12,6 5 3 11 6 N 1026,6 20 0 0,0
18.01.2017 07:00:00 -8,8 -11,0 -12,4 5 3 17 9 WNW 1026,2 29 0 0,0
18.01.2017 06:00:00 -6,7 -10,6 -8,3 11 6 21 12 N 1025,5 39 0 0,0
18.01.2017 05:00:00 -6,5 -10,4 -8,0 8 5 19 10 N 1025,8 39 0 0,0
18.01.2017 04:00:00 -6,3 -10,3 -7,7 11 6 23 12 N 1025,9 42 0 0,0
18.01.2017 03:00:00 -5,9 -10,1 -7,2 16 9 25 14 N 1025,8 46 0 0,0
18.01.2017 02:00:00 -5,6 -10,2 -6,9 12 7 26 14 N 1025,8 49 0 0,0
18.01.2017 01:00:00 -5,2 -10,2 -6,6 15 8 27 14 N 1025,7 53 0 0,0
18.01.2017 00:00:00 -5,1 -10,1 -6,4 13 7 28 15 N 1025,9 55 0 0,0
17.01.2017 23:00:00 -4,8 -10,0 -6,1 14 7 27 15 N 1025,7 58 0 0,0
17.01.2017 22:00:00 -4,3 -9,7 -5,3 17 9 36 20 N 1025,2 56 0 0,0
17.01.2017 21:00:00 -3,9 -9,5 -4,5 22 12 49 26 N 1024,8 54 0 0,0
17.01.2017 20:00:00 -3,2 -9,1 -3,5 23 13 49 26 N 1024,6 50 0 0,0
17.01.2017 19:00:00 -2,9 -9,6 -3,5 25 13 48 26 N 1024,4 60 0 0,0
17.01.2017 18:00:00 -2,9 -9,8 -3,5 22 12 47 25 N 1024,1 60 14 0,0
17.01.2017 17:00:00 -2,2 -10,0 -1,5 26 14 53 29 NNE 1023,9 42 60 0,0
17.01.2017 16:00:00 -1,3 -10,7 0,9 28 15 46 25 NNE 1022,8 44 60 0,0
17.01.2017 15:00:00 -0,1 -11,2 3,5 20 11 45 24 N 1022,2 46 60 0,0
17.01.2017 14:00:00 -0,1 -11,5 3,8 18 10 49 26 N 1022,1 43 60 0,0
17.01.2017 13:00:00 -0,5 -11,6 2,8 19 10 51 27 N 1022,2 60 60 0,0
17.01.2017 12:00:00 -1,5 -11,4 1,2 24 13 46 25 N 1022,9 60 60 0,0
17.01.2017 11:00:00 -2,6 -10,6 -0,9 18 10 37 20 N 1023,3 60 60 0,0
17.01.2017 10:00:00 -4,3 -10,5 -5,8 14 7 26 14 NW 1023,5 60 41 0,0
17.01.2017 09:00:00 -6,1 -10,2 -10,3 13 7 31 17 NNW 1023,9 47 0 0,0
17.01.2017 08:00:00 -7,5 -10,7 -9,9 9 5 26 14 W 1024,7 58 0 0,0
17.01.2017 07:00:00 -6,3 -10,2 -7,3 8 4 33 18 NNW 1023,7 10 0 0,0
17.01.2017 06:00:00 -5,8 -9,9 -6,7 18 10 31 17 NNW 1023,3 10 0 0,0
17.01.2017 05:00:00 -5,3 -9,4 -7,0 14 8 23 13 N 1023,8 60 0 0,0
17.01.2017 04:00:00 -5,6 -9,2 -8,3 11 6 18 10 NNW 1024,5 10 0 0,0
17.01.2017 03:00:00 -5,9 -9,3 -8,6 9 5 36 20 NW 1024,7 60 0 0,0
17.01.2017 02:00:00 -3,9 -10,3 -6,3 16 8 35 19 N 1024,1 60 0 0,0
17.01.2017 01:00:00 -3,9 -7,7 -5,2 11 6 38 21 N 1024,1 59 0 0,0

tt = Température de l'air
td = dewpoint
tt 5cm = Température de l'air 5cm
ff = Vitesse du vent
fx = gusts
dd = Direction du vent
ppp = reduced air pressure
vv = visibility
sd = Ensoleillement
rr = Quantités de précipitations

stations d'obs. à proximité